owner,sensor,date,latitude,longitude,vertical_datum,sea_water_practical_salinity,qcFlag 
COMPS,ioos:station:USF.COMPS:ANC:1,2011-08-01T00:54:00Z,28.1930,-82.7890,0.0,27.596,1111122 
COMPS,ioos:station:USF.COMPS:ANC:1,2011-08-01T01:54:00Z,28.1930,-82.7890,0.0,27.199,1111122 
COMPS,ioos:station:USF.COMPS:ANC:1,2011-08-01T02:54:00Z,28.1930,-82.7890,0.0,26.409,1111122 
COMPS,ioos:station:USF.COMPS:ANC:1,2011-08-01T03:54:00Z,28.1930,-82.7890,0.0,26.043,1111122 
COMPS,ioos:station:USF.COMPS:ANC:1,2011-08-01T04:54:00Z,28.1930,-82.7890,0.0,27.724,1111122 
COMPS,ioos:station:USF.COMPS:ANC:1,2011-08-01T05:54:00Z,28.1930,-82.7890,0.0,28.204,1111122 
COMPS,ioos:station:USF.COMPS:ANC:1,2011-08-01T06:54:00Z,28.1930,-82.7890,0.0,28.415,1111122 
COMPS,ioos:station:USF.COMPS:ANC:1,2011-08-01T07:54:00Z,28.1930,-82.7890,0.0,28.608,1111122 
COMPS,ioos:station:USF.COMPS:ANC:1,2011-08-01T08:54:00Z,28.1930,-82.7890,0.0,28.782,1111122 
COMPS,ioos:station:USF.COMPS:ANC:1,2011-08-01T09:54:00Z,28.1930,-82.7890,0.0,28.852,1111122 
COMPS,ioos:station:USF.COMPS:ANC:1,2011-08-01T10:54:00Z,28.1930,-82.7890,0.0,28.796,1111122 
COMPS,ioos:station:USF.COMPS:ANC:1,2011-08-01T11:54:00Z,28.1930,-82.7890,0.0,27.721,1111122 
COMPS,ioos:station:USF.COMPS:ANC:1,2011-08-01T12:54:00Z,28.1930,-82.7890,0.0,27.658,1111122 
COMPS,ioos:station:USF.COMPS:ANC:1,2011-08-01T13:54:00Z,28.1930,-82.7890,0.0,27.363,1111122 
COMPS,ioos:station:USF.COMPS:ANC:1,2011-08-01T14:54:00Z,28.1930,-82.7890,0.0,27.143,1111122 
COMPS,ioos:station:USF.COMPS:ANC:1,2011-08-01T15:54:00Z,28.1930,-82.7890,0.0,27.519,1111122 
COMPS,ioos:station:USF.COMPS:ANC:1,2011-08-01T16:54:00Z,28.1930,-82.7890,0.0,28.267,1111122 
COMPS,ioos:station:USF.COMPS:ANC:1,2011-08-01T17:54:00Z,28.1930,-82.7890,0.0,28.481,1111122 
COMPS,ioos:station:USF.COMPS:ANC:1,2011-08-01T18:54:00Z,28.1930,-82.7890,0.0,28.439,1111122 
COMPS,ioos:station:USF.COMPS:ANC:1,2011-08-01T19:54:00Z,28.1930,-82.7890,0.0,28.608,1111122 
COMPS,ioos:station:USF.COMPS:ANC:1,2011-08-01T20:54:00Z,28.1930,-82.7890,0.0,28.658,1111122 
COMPS,ioos:station:USF.COMPS:ANC:1,2011-08-01T21:54:00Z,28.1930,-82.7890,0.0,28.727,1111122 
COMPS,ioos:station:USF.COMPS:ANC:1,2011-08-01T22:54:00Z,28.1930,-82.7890,0.0,28.582,1111122 
COMPS,ioos:station:USF.COMPS:ANC:1,2011-08-01T23:54:00Z,28.1930,-82.7890,0.0,28.481,1111122 
COMPS,ioos:station:USF.COMPS:ANC:1,2011-08-02T00:54:00Z,28.1930,-82.7890,0.0,28.044,1111122 
COMPS,ioos:station:USF.COMPS:ANC:1,2011-08-02T01:54:00Z,28.1930,-82.7890,0.0,27.458,1111122 
COMPS,ioos:station:USF.COMPS:ANC:1,2011-08-02T02:54:00Z,28.1930,-82.7890,0.0,26.861,1111122 
COMPS,ioos:station:USF.COMPS:ANC:1,2011-08-02T03:54:00Z,28.1930,-82.7890,0.0,26.211,1111122 
COMPS,ioos:station:USF.COMPS:ANC:1,2011-08-02T04:54:00Z,28.1930,-82.7890,0.0,26.299,1111122 
COMPS,ioos:station:USF.COMPS:ANC:1,2011-08-02T05:54:00Z,28.1930,-82.7890,0.0,27.198,1111122 
COMPS,ioos:station:USF.COMPS:ANC:1,2011-08-02T06:54:00Z,28.1930,-82.7890,0.0,27.657,1111122 
COMPS,ioos:station:USF.COMPS:ANC:1,2011-08-02T07:54:00Z,28.1930,-82.7890,0.0,27.956,1111122 
COMPS,ioos:station:USF.COMPS:ANC:1,2011-08-02T08:54:00Z,28.1930,-82.7890,0.0,28.114,1111122 
COMPS,ioos:station:USF.COMPS:ANC:1,2011-08-02T09:54:00Z,28.1930,-82.7890,0.0,28.275,1111122 
COMPS,ioos:station:USF.COMPS:ANC:1,2011-08-02T10:54:00Z,28.1930,-82.7890,0.0,28.351,1111122 
COMPS,ioos:station:USF.COMPS:ANC:1,2011-08-02T11:54:00Z,28.1930,-82.7890,0.0,27.872,1111122 
COMPS,ioos:station:USF.COMPS:ANC:1,2011-08-02T12:54:00Z,28.1930,-82.7890,0.0,27.089,1111122 
COMPS,ioos:station:USF.COMPS:ANC:1,2011-08-02T13:54:00Z,28.1930,-82.7890,0.0,26.591,1111122 
COMPS,ioos:station:USF.COMPS:ANC:1,2011-08-02T14:54:00Z,28.1930,-82.7890,0.0,26.703,1111122 
COMPS,ioos:station:USF.COMPS:ANC:1,2011-08-02T15:54:00Z,28.1930,-82.7890,0.0,27.962,1111122 
COMPS,ioos:station:USF.COMPS:ANC:1,2011-08-02T16:54:00Z,28.1930,-82.7890,0.0,27.952,1111122 
COMPS,ioos:station:USF.COMPS:ANC:1,2011-08-02T17:54:00Z,28.1930,-82.7890,0.0,28.211,1111122 
COMPS,ioos:station:USF.COMPS:ANC:1,2011-08-02T18:54:00Z,28.1930,-82.7890,0.0,28.229,1111122 
COMPS,ioos:station:USF.COMPS:ANC:1,2011-08-02T19:54:00Z,28.1930,-82.7890,0.0,28.162,1111122 
COMPS,ioos:station:USF.COMPS:ANC:1,2011-08-02T20:54:00Z,28.1930,-82.7890,0.0,28.268,1111122 
COMPS,ioos:station:USF.COMPS:ANC:1,2011-08-02T21:54:00Z,28.1930,-82.7890,0.0,28.473,1111122 
COMPS,ioos:station:USF.COMPS:ANC:1,2011-08-02T22:54:00Z,28.1930,-82.7890,0.0,28.482,1111122 
COMPS,ioos:station:USF.COMPS:ANC:1,2011-08-02T23:54:00Z,28.1930,-82.7890,0.0,28.315,1111122 
COMPS,ioos:station:USF.COMPS:ANC:1,2011-08-03T00:54:00Z,28.1930,-82.7890,0.0,27.703,1111122 
COMPS,ioos:station:USF.COMPS:ANC:1,2011-08-03T01:54:00Z,28.1930,-82.7890,0.0,27.081,1111122 
COMPS,ioos:station:USF.COMPS:ANC:1,2011-08-03T02:54:00Z,28.1930,-82.7890,0.0,26.588,1111122 
COMPS,ioos:station:USF.COMPS:ANC:1,2011-08-03T03:54:00Z,28.1930,-82.7890,0.0,26.79,1111122 
COMPS,ioos:station:USF.COMPS:ANC:1,2011-08-03T04:54:00Z,28.1930,-82.7890,0.0,27.373,1111122 
COMPS,ioos:station:USF.COMPS:ANC:1,2011-08-03T05:54:00Z,28.1930,-82.7890,0.0,28.015,1111122 
COMPS,ioos:station:USF.COMPS:ANC:1,2011-08-03T06:54:00Z,28.1930,-82.7890,0.0,28.208,1111122 
COMPS,ioos:station:USF.COMPS:ANC:1,2011-08-03T07:54:00Z,28.1930,-82.7890,0.0,28.33,1111122 
COMPS,ioos:station:USF.COMPS:ANC:1,2011-08-03T08:54:00Z,28.1930,-82.7890,0.0,28.409,1111122 
COMPS,ioos:station:USF.COMPS:ANC:1,2011-08-03T09:54:00Z,28.1930,-82.7890,0.0,28.401,1111122 
COMPS,ioos:station:USF.COMPS:ANC:1,2011-08-03T10:54:00Z,28.1930,-82.7890,0.0,28.542,1111122 
COMPS,ioos:station:USF.COMPS:ANC:1,2011-08-03T11:54:00Z,28.1930,-82.7890,0.0,28.554,1111122 
COMPS,ioos:station:USF.COMPS:ANC:1,2011-08-03T12:54:00Z,28.1930,-82.7890,0.0,28.394,1111122 
COMPS,ioos:station:USF.COMPS:ANC:1,2011-08-03T13:54:00Z,28.1930,-82.7890,0.0,28.061,1111122 
COMPS,ioos:station:USF.COMPS:ANC:1,2011-08-03T14:54:00Z,28.1930,-82.7890,0.0,27.376,1111122 
COMPS,ioos:station:USF.COMPS:ANC:1,2011-08-03T15:54:00Z,28.1930,-82.7890,0.0,26.951,1111122 
COMPS,ioos:station:USF.COMPS:ANC:1,2011-08-03T16:54:00Z,28.1930,-82.7890,0.0,27.025,1111122 
COMPS,ioos:station:USF.COMPS:ANC:1,2011-08-03T17:54:00Z,28.1930,-82.7890,0.0,27.687,1111122 
COMPS,ioos:station:USF.COMPS:ANC:1,2011-08-03T18:54:00Z,28.1930,-82.7890,0.0,27.884,1111122 
COMPS,ioos:station:USF.COMPS:ANC:1,2011-08-03T19:54:00Z,28.1930,-82.7890,0.0,27.963,1111122 
COMPS,ioos:station:USF.COMPS:ANC:1,2011-08-03T20:54:00Z,28.1930,-82.7890,0.0,28.057,1111122 
COMPS,ioos:station:USF.COMPS:ANC:1,2011-08-03T21:54:00Z,28.1930,-82.7890,0.0,28.049,1111122 
COMPS,ioos:station:USF.COMPS:ANC:1,2011-08-03T22:54:00Z,28.1930,-82.7890,0.0,28.022,1111122 
COMPS,ioos:station:USF.COMPS:ANC:1,2011-08-03T23:54:00Z,28.1930,-82.7890,0.0,28.201,1111122 
COMPS,ioos:station:USF.COMPS:ANC:1,2011-08-04T00:54:00Z,28.1930,-82.7890,0.0,28.215,1111122 
COMPS,ioos:station:USF.COMPS:ANC:1,2011-08-04T02:54:00Z,28.1930,-82.7890,0.0,27.665,1111122 
COMPS,ioos:station:USF.COMPS:ANC:1,2011-08-04T03:54:00Z,28.1930,-82.7890,0.0,27.038,1111122 
COMPS,ioos:station:USF.COMPS:ANC:1,2011-08-04T04:54:00Z,28.1930,-82.7890,0.0,26.732,1111122 
COMPS,ioos:station:USF.COMPS:ANC:1,2011-08-04T05:54:00Z,28.1930,-82.7890,0.0,26.918,1111122 
COMPS,ioos:station:USF.COMPS:ANC:1,2011-08-04T06:54:00Z,28.1930,-82.7890,0.0,27.358,1111122 
COMPS,ioos:station:USF.COMPS:ANC:1,2011-08-04T07:54:00Z,28.1930,-82.7890,0.0,27.684,1111122 
COMPS,ioos:station:USF.COMPS:ANC:1,2011-08-04T08:54:00Z,28.1930,-82.7890,0.0,28.253,1111122 
COMPS,ioos:station:USF.COMPS:ANC:1,2011-08-04T09:54:00Z,28.1930,-82.7890,0.0,28.339,1111122 
COMPS,ioos:station:USF.COMPS:ANC:1,2011-08-04T10:54:00Z,28.1930,-82.7890,0.0,28.519,1111122 
COMPS,ioos:station:USF.COMPS:ANC:1,2011-08-04T11:54:00Z,28.1930,-82.7890,0.0,28.695,1111122 
COMPS,ioos:station:USF.COMPS:ANC:1,2011-08-04T12:54:00Z,28.1930,-82.7890,0.0,28.671,1111122 
COMPS,ioos:station:USF.COMPS:ANC:1,2011-08-04T13:54:00Z,28.1930,-82.7890,0.0,28.508,1111122 
COMPS,ioos:station:USF.COMPS:ANC:1,2011-08-04T14:54:00Z,28.1930,-82.7890,0.0,28.112,1111122 
COMPS,ioos:station:USF.COMPS:ANC:1,2011-08-04T15:54:00Z,28.1930,-82.7890,0.0,27.43,1111122 
COMPS,ioos:station:USF.COMPS:ANC:1,2011-08-04T16:54:00Z,28.1930,-82.7890,0.0,26.961,1111122 
COMPS,ioos:station:USF.COMPS:ANC:1,2011-08-04T17:54:00Z,28.1930,-82.7890,0.0,27.518,1111122 
COMPS,ioos:station:USF.COMPS:ANC:1,2011-08-04T18:54:00Z,28.1930,-82.7890,0.0,28.262,1111122 
COMPS,ioos:station:USF.COMPS:ANC:1,2011-08-04T19:54:00Z,28.1930,-82.7890,0.0,28.476,1111122 
COMPS,ioos:station:USF.COMPS:ANC:1,2011-08-04T20:54:00Z,28.1930,-82.7890,0.0,28.538,1111122 
COMPS,ioos:station:USF.COMPS:ANC:1,2011-08-04T21:54:00Z,28.1930,-82.7890,0.0,28.532,1111122 
COMPS,ioos:station:USF.COMPS:ANC:1,2011-08-04T22:54:00Z,28.1930,-82.7890,0.0,28.586,1111122 
COMPS,ioos:station:USF.COMPS:ANC:1,2011-08-04T23:54:00Z,28.1930,-82.7890,0.0,28.632,1111122 
COMPS,ioos:station:USF.COMPS:ANC:1,2011-08-05T00:54:00Z,28.1930,-82.7890,0.0,28.503,1111122 
COMPS,ioos:station:USF.COMPS:ANC:1,2011-08-05T01:54:00Z,28.1930,-82.7890,0.0,28.243,1111122 
COMPS,ioos:station:USF.COMPS:ANC:1,2011-08-05T02:54:00Z,28.1930,-82.7890,0.0,27.811,1111122 
COMPS,ioos:station:USF.COMPS:ANC:1,2011-08-05T03:54:00Z,28.1930,-82.7890,0.0,27.446,1111122 
COMPS,ioos:station:USF.COMPS:ANC:1,2011-08-05T04:54:00Z,28.1930,-82.7890,0.0,28.075,1111122 
COMPS,ioos:station:USF.COMPS:ANC:1,2011-08-05T05:54:00Z,28.1930,-82.7890,0.0,28.501,1111122 
COMPS,ioos:station:USF.COMPS:ANC:1,2011-08-05T06:54:00Z,28.1930,-82.7890,0.0,28.356,1111122 
COMPS,ioos:station:USF.COMPS:ANC:1,2011-08-05T07:54:00Z,28.1930,-82.7890,0.0,28.519,1111122 
COMPS,ioos:station:USF.COMPS:ANC:1,2011-08-05T08:54:00Z,28.1930,-82.7890,0.0,28.322,1111122 
COMPS,ioos:station:USF.COMPS:ANC:1,2011-08-05T09:54:00Z,28.1930,-82.7890,0.0,28.111,1111122 
COMPS,ioos:station:USF.COMPS:ANC:1,2011-08-05T10:54:00Z,28.1930,-82.7890,0.0,28.129,1111122 
COMPS,ioos:station:USF.COMPS:ANC:1,2011-08-05T11:54:00Z,28.1930,-82.7890,0.0,28.131,1111122 
COMPS,ioos:station:USF.COMPS:ANC:1,2011-08-05T12:54:00Z,28.1930,-82.7890,0.0,28.163,1111122 
COMPS,ioos:station:USF.COMPS:ANC:1,2011-08-05T17:54:00Z,28.1930,-82.7890,0.0,26.933,1111122 
COMPS,ioos:station:USF.COMPS:ANC:1,2011-08-05T18:54:00Z,28.1930,-82.7890,0.0,27.964,1111122 
COMPS,ioos:station:USF.COMPS:ANC:1,2011-08-05T19:54:00Z,28.1930,-82.7890,0.0,28.46,1111122 
COMPS,ioos:station:USF.COMPS:ANC:1,2011-08-05T20:54:00Z,28.1930,-82.7890,0.0,28.515,1111122 
COMPS,ioos:station:USF.COMPS:ANC:1,2011-08-05T21:54:00Z,28.1930,-82.7890,0.0,28.51,1111122 
COMPS,ioos:station:USF.COMPS:ANC:1,2011-08-05T22:54:00Z,28.1930,-82.7890,0.0,28.545,1111122 
COMPS,ioos:station:USF.COMPS:ANC:1,2011-08-05T23:54:00Z,28.1930,-82.7890,0.0,28.503,1111122 
COMPS,ioos:station:USF.COMPS:ANC:1,2011-08-06T00:54:00Z,28.1930,-82.7890,0.0,28.52,1111122 
COMPS,ioos:station:USF.COMPS:ANC:1,2011-08-06T01:54:00Z,28.1930,-82.7890,0.0,28.595,1111122 
COMPS,ioos:station:USF.COMPS:ANC:1,2011-08-06T02:54:00Z,28.1930,-82.7890,0.0,28.62,1111122 
COMPS,ioos:station:USF.COMPS:ANC:1,2011-08-06T03:54:00Z,28.1930,-82.7890,0.0,28.431,1111122 
COMPS,ioos:station:USF.COMPS:ANC:1,2011-08-06T04:54:00Z,28.1930,-82.7890,0.0,28.333,1111122 
COMPS,ioos:station:USF.COMPS:ANC:1,2011-08-06T05:54:00Z,28.1930,-82.7890,0.0,28.256,1111122 
COMPS,ioos:station:USF.COMPS:ANC:1,2011-08-06T06:54:00Z,28.1930,-82.7890,0.0,28.423,1111122 
COMPS,ioos:station:USF.COMPS:ANC:1,2011-08-06T07:54:00Z,28.1930,-82.7890,0.0,28.348,1111122 
COMPS,ioos:station:USF.COMPS:ANC:1,2011-08-06T08:54:00Z,28.1930,-82.7890,0.0,28.46,1111122 
COMPS,ioos:station:USF.COMPS:ANC:1,2011-08-06T09:54:00Z,28.1930,-82.7890,0.0,28.465,1111122 
COMPS,ioos:station:USF.COMPS:ANC:1,2011-08-06T10:54:00Z,28.1930,-82.7890,0.0,28.495,1111122 
COMPS,ioos:station:USF.COMPS:ANC:1,2011-08-06T11:54:00Z,28.1930,-82.7890,0.0,28.36,1111122 
COMPS,ioos:station:USF.COMPS:ANC:1,2011-08-06T12:54:00Z,28.1930,-82.7890,0.0,27.398,1111122 
COMPS,ioos:station:USF.COMPS:ANC:1,2011-08-06T13:54:00Z,28.1930,-82.7890,0.0,28.799,1111122 
COMPS,ioos:station:USF.COMPS:ANC:1,2011-08-06T14:54:00Z,28.1930,-82.7890,0.0,28.477,1111122 
COMPS,ioos:station:USF.COMPS:ANC:1,2011-08-06T15:54:00Z,28.1930,-82.7890,0.0,28.446,1111122 
COMPS,ioos:station:USF.COMPS:ANC:1,2011-08-06T16:54:00Z,28.1930,-82.7890,0.0,27.935,1111122 
COMPS,ioos:station:USF.COMPS:ANC:1,2011-08-06T17:54:00Z,28.1930,-82.7890,0.0,27.443,1111122 
COMPS,ioos:station:USF.COMPS:ANC:1,2011-08-06T18:54:00Z,28.1930,-82.7890,0.0,27.071,1111122 
COMPS,ioos:station:USF.COMPS:ANC:1,2011-08-06T19:54:00Z,28.1930,-82.7890,0.0,26.87,1111122 
COMPS,ioos:station:USF.COMPS:ANC:1,2011-08-06T20:54:00Z,28.1930,-82.7890,0.0,27.45,1111122 
COMPS,ioos:station:USF.COMPS:ANC:1,2011-08-06T21:54:00Z,28.1930,-82.7890,0.0,28.199,1111122 
COMPS,ioos:station:USF.COMPS:ANC:1,2011-08-06T22:54:00Z,28.1930,-82.7890,0.0,28.436,1111122 
COMPS,ioos:station:USF.COMPS:ANC:1,2011-08-06T23:54:00Z,28.1930,-82.7890,0.0,28.456,1111122 
COMPS,ioos:station:USF.COMPS:ANC:1,2011-08-07T00:54:00Z,28.1930,-82.7890,0.0,28.466,1111122 
COMPS,ioos:station:USF.COMPS:ANC:1,2011-08-07T01:54:00Z,28.1930,-82.7890,0.0,28.498,1111122 
COMPS,ioos:station:USF.COMPS:ANC:1,2011-08-07T02:54:00Z,28.1930,-82.7890,0.0,28.521,1111122 
COMPS,ioos:station:USF.COMPS:ANC:1,2011-08-07T03:54:00Z,28.1930,-82.7890,0.0,28.534,1111122 
COMPS,ioos:station:USF.COMPS:ANC:1,2011-08-07T04:54:00Z,28.1930,-82.7890,0.0,28.559,1111122 
COMPS,ioos:station:USF.COMPS:ANC:1,2011-08-07T05:54:00Z,28.1930,-82.7890,0.0,28.483,1111122 
COMPS,ioos:station:USF.COMPS:ANC:1,2011-08-07T06:54:00Z,28.1930,-82.7890,0.0,28.296,1111122 
COMPS,ioos:station:USF.COMPS:ANC:1,2011-08-07T07:54:00Z,28.1930,-82.7890,0.0,28.324,1111122 
COMPS,ioos:station:USF.COMPS:ANC:1,2011-08-07T08:54:00Z,28.1930,-82.7890,0.0,28.501,1111122 
COMPS,ioos:station:USF.COMPS:ANC:1,2011-08-07T09:54:00Z,28.1930,-82.7890,0.0,28.472,1111122 
COMPS,ioos:station:USF.COMPS:ANC:1,2011-08-07T10:54:00Z,28.1930,-82.7890,0.0,28.475,1111122 
COMPS,ioos:station:USF.COMPS:ANC:1,2011-08-07T11:54:00Z,28.1930,-82.7890,0.0,28.46,1111122 
COMPS,ioos:station:USF.COMPS:ANC:1,2011-08-07T12:54:00Z,28.1930,-82.7890,0.0,28.403,1111122 
COMPS,ioos:station:USF.COMPS:ANC:1,2011-08-07T13:54:00Z,28.1930,-82.7890,0.0,28.394,1111122 
COMPS,ioos:station:USF.COMPS:ANC:1,2011-08-07T14:54:00Z,28.1930,-82.7890,0.0,28.452,1111122 
COMPS,ioos:station:USF.COMPS:ANC:1,2011-08-07T15:54:00Z,28.1930,-82.7890,0.0,28.479,1111122 
COMPS,ioos:station:USF.COMPS:ANC:1,2011-08-07T16:54:00Z,28.1930,-82.7890,0.0,28.429,1111122 
COMPS,ioos:station:USF.COMPS:ANC:1,2011-08-07T17:54:00Z,28.1930,-82.7890,0.0,28.22,1111122 
COMPS,ioos:station:USF.COMPS:ANC:1,2011-08-07T18:54:00Z,28.1930,-82.7890,0.0,27.366,1111122 
COMPS,ioos:station:USF.COMPS:ANC:1,2011-08-07T19:54:00Z,28.1930,-82.7890,0.0,26.617,1111122 
COMPS,ioos:station:USF.COMPS:ANC:1,2011-08-07T20:54:00Z,28.1930,-82.7890,0.0,26.445,1111122 
COMPS,ioos:station:USF.COMPS:ANC:1,2011-08-07T21:54:00Z,28.1930,-82.7890,0.0,26.617,1111122 
COMPS,ioos:station:USF.COMPS:ANC:1,2011-08-07T22:54:00Z,28.1930,-82.7890,0.0,27.384,1111122 
COMPS,ioos:station:USF.COMPS:ANC:1,2011-08-07T23:54:00Z,28.1930,-82.7890,0.0,27.758,1111122 
COMPS,ioos:station:USF.COMPS:ANC:1,2011-08-08T00:54:00Z,28.1930,-82.7890,0.0,28.029,1111122 
COMPS,ioos:station:USF.COMPS:ANC:1,2011-08-08T01:54:00Z,28.1930,-82.7890,0.0,28.168,1111122 
COMPS,ioos:station:USF.COMPS:ANC:1,2011-08-08T02:54:00Z,28.1930,-82.7890,0.0,28.163,1111122 
COMPS,ioos:station:USF.COMPS:ANC:1,2011-08-08T03:54:00Z,28.1930,-82.7890,0.0,27.9,1111122 
COMPS,ioos:station:USF.COMPS:ANC:1,2011-08-08T04:54:00Z,28.1930,-82.7890,0.0,27.812,1111122 
COMPS,ioos:station:USF.COMPS:ANC:1,2011-08-08T05:54:00Z,28.1930,-82.7890,0.0,27.775,1111122 
COMPS,ioos:station:USF.COMPS:ANC:1,2011-08-08T06:54:00Z,28.1930,-82.7890,0.0,27.765,1111122 
COMPS,ioos:station:USF.COMPS:ANC:1,2011-08-08T07:54:00Z,28.1930,-82.7890,0.0,28.286,1111122 
COMPS,ioos:station:USF.COMPS:ANC:1,2011-08-08T08:54:00Z,28.1930,-82.7890,0.0,28.305,1111122 
COMPS,ioos:station:USF.COMPS:ANC:1,2011-08-08T09:54:00Z,28.1930,-82.7890,0.0,28.32,1111122 
COMPS,ioos:station:USF.COMPS:ANC:1,2011-08-08T10:54:00Z,28.1930,-82.7890,0.0,28.312,1111122 
COMPS,ioos:station:USF.COMPS:ANC:1,2011-08-08T11:54:00Z,28.1930,-82.7890,0.0,28.27,1111122 
COMPS,ioos:station:USF.COMPS:ANC:1,2011-08-08T12:54:00Z,28.1930,-82.7890,0.0,28.149,1111122 
COMPS,ioos:station:USF.COMPS:ANC:1,2011-08-08T13:54:00Z,28.1930,-82.7890,0.0,28.139,1111122 
COMPS,ioos:station:USF.COMPS:ANC:1,2011-08-08T14:54:00Z,28.1930,-82.7890,0.0,28.166,1111122 
COMPS,ioos:station:USF.COMPS:ANC:1,2011-08-08T15:54:00Z,28.1930,-82.7890,0.0,28.292,1111122 
COMPS,ioos:station:USF.COMPS:ANC:1,2011-08-08T16:54:00Z,28.1930,-82.7890,0.0,28.288,1111122 
COMPS,ioos:station:USF.COMPS:ANC:1,2011-08-08T17:54:00Z,28.1930,-82.7890,0.0,28.159,1111122 
COMPS,ioos:station:USF.COMPS:ANC:1,2011-08-08T18:54:00Z,28.1930,-82.7890,0.0,27.85,1111122 
COMPS,ioos:station:USF.COMPS:ANC:1,2011-08-08T19:54:00Z,28.1930,-82.7890,0.0,27.444,1111122 
COMPS,ioos:station:USF.COMPS:ANC:1,2011-08-08T20:54:00Z,28.1930,-82.7890,0.0,27.053,1111122 
COMPS,ioos:station:USF.COMPS:ANC:1,2011-08-08T21:54:00Z,28.1930,-82.7890,0.0,26.527,1111122 
COMPS,ioos:station:USF.COMPS:ANC:1,2011-08-08T22:54:00Z,28.1930,-82.7890,0.0,26.671,1111122 
COMPS,ioos:station:USF.COMPS:ANC:1,2011-08-08T23:54:00Z,28.1930,-82.7890,0.0,27.064,1111122 
COMPS,ioos:station:USF.COMPS:ANC:1,2011-08-09T00:54:00Z,28.1930,-82.7890,0.0,27.612,1111122 
COMPS,ioos:station:USF.COMPS:ANC:1,2011-08-09T01:54:00Z,28.1930,-82.7890,0.0,27.829,1111122 
COMPS,ioos:station:USF.COMPS:ANC:1,2011-08-09T02:54:00Z,28.1930,-82.7890,0.0,27.853,1111122 
COMPS,ioos:station:USF.COMPS:ANC:1,2011-08-09T03:54:00Z,28.1930,-82.7890,0.0,27.853,1111122 
COMPS,ioos:station:USF.COMPS:ANC:1,2011-08-09T04:54:00Z,28.1930,-82.7890,0.0,27.864,1111122 
COMPS,ioos:station:USF.COMPS:ANC:1,2011-08-09T05:54:00Z,28.1930,-82.7890,0.0,27.981,1111122 
COMPS,ioos:station:USF.COMPS:ANC:1,2011-08-09T06:54:00Z,28.1930,-82.7890,0.0,28.052,1111122 
COMPS,ioos:station:USF.COMPS:ANC:1,2011-08-09T07:54:00Z,28.1930,-82.7890,0.0,28.092,1111122 
COMPS,ioos:station:USF.COMPS:ANC:1,2011-08-09T08:54:00Z,28.1930,-82.7890,0.0,28.056,1111122 
COMPS,ioos:station:USF.COMPS:ANC:1,2011-08-09T09:54:00Z,28.1930,-82.7890,0.0,28.026,1111122 
COMPS,ioos:station:USF.COMPS:ANC:1,2011-08-09T10:54:00Z,28.1930,-82.7890,0.0,28.036,1111122 
COMPS,ioos:station:USF.COMPS:ANC:1,2011-08-09T11:54:00Z,28.1930,-82.7890,0.0,28.03,1111122 
COMPS,ioos:station:USF.COMPS:ANC:1,2011-08-09T12:54:00Z,28.1930,-82.7890,0.0,27.957,1111122 
COMPS,ioos:station:USF.COMPS:ANC:1,2011-08-09T14:54:00Z,28.1930,-82.7890,0.0,27.67,1111122 
COMPS,ioos:station:USF.COMPS:ANC:1,2011-08-09T15:54:00Z,28.1930,-82.7890,0.0,27.473,1111122 
COMPS,ioos:station:USF.COMPS:ANC:1,2011-08-09T16:54:00Z,28.1930,-82.7890,0.0,27.586,1111122 
COMPS,ioos:station:USF.COMPS:ANC:1,2011-08-09T17:54:00Z,28.1930,-82.7890,0.0,27.079,1111122 
COMPS,ioos:station:USF.COMPS:ANC:1,2011-08-09T18:54:00Z,28.1930,-82.7890,0.0,25.838,1111122 
COMPS,ioos:station:USF.COMPS:ANC:1,2011-08-09T19:54:00Z,28.1930,-82.7890,0.0,25.873,1111122 
COMPS,ioos:station:USF.COMPS:ANC:1,2011-08-09T20:54:00Z,28.1930,-82.7890,0.0,25.511,1111122 
COMPS,ioos:station:USF.COMPS:ANC:1,2011-08-09T21:54:00Z,28.1930,-82.7890,0.0,24.911,1111122 
COMPS,ioos:station:USF.COMPS:ANC:1,2011-08-09T22:54:00Z,28.1930,-82.7890,0.0,24.618,1111122 
COMPS,ioos:station:USF.COMPS:ANC:1,2011-08-09T23:54:00Z,28.1930,-82.7890,0.0,23.5,1111122 
COMPS,ioos:station:USF.COMPS:ANC:1,2011-08-10T00:54:00Z,28.1930,-82.7890,0.0,22.38,1111122 
COMPS,ioos:station:USF.COMPS:ANC:1,2011-08-10T01:54:00Z,28.1930,-82.7890,0.0,21.83,1111122 
COMPS,ioos:station:USF.COMPS:ANC:1,2011-08-10T02:54:00Z,28.1930,-82.7890,0.0,22.969,1111122 
COMPS,ioos:station:USF.COMPS:ANC:1,2011-08-10T03:54:00Z,28.1930,-82.7890,0.0,23.986,1111122 
COMPS,ioos:station:USF.COMPS:ANC:1,2011-08-10T04:54:00Z,28.1930,-82.7890,0.0,24.384,1111122 
COMPS,ioos:station:USF.COMPS:ANC:1,2011-08-10T05:54:00Z,28.1930,-82.7890,0.0,24.628,1111122 
COMPS,ioos:station:USF.COMPS:ANC:1,2011-08-10T06:54:00Z,28.1930,-82.7890,0.0,24.915,1111122 
COMPS,ioos:station:USF.COMPS:ANC:1,2011-08-10T07:54:00Z,28.1930,-82.7890,0.0,24.98,1111122 
COMPS,ioos:station:USF.COMPS:ANC:1,2011-08-10T08:54:00Z,28.1930,-82.7890,0.0,24.827,1111122 
COMPS,ioos:station:USF.COMPS:ANC:1,2011-08-10T09:54:00Z,28.1930,-82.7890,0.0,24.619,1111122 
COMPS,ioos:station:USF.COMPS:ANC:1,2011-08-10T10:54:00Z,28.1930,-82.7890,0.0,24.005,1111122 
COMPS,ioos:station:USF.COMPS:ANC:1,2011-08-10T11:54:00Z,28.1930,-82.7890,0.0,23.768,1111122 
COMPS,ioos:station:USF.COMPS:ANC:1,2011-08-10T12:54:00Z,28.1930,-82.7890,0.0,24.36,1111122 
COMPS,ioos:station:USF.COMPS:ANC:1,2011-08-10T13:54:00Z,28.1930,-82.7890,0.0,25.119,1111122 
COMPS,ioos:station:USF.COMPS:ANC:1,2011-08-10T14:54:00Z,28.1930,-82.7890,0.0,25.304,1111122 
COMPS,ioos:station:USF.COMPS:ANC:1,2011-08-10T15:54:00Z,28.1930,-82.7890,0.0,25.088,1111122 
COMPS,ioos:station:USF.COMPS:ANC:1,2011-08-10T16:54:00Z,28.1930,-82.7890,0.0,24.815,1111122 
COMPS,ioos:station:USF.COMPS:ANC:1,2011-08-10T17:54:00Z,28.1930,-82.7890,0.0,24.881,1111122 
COMPS,ioos:station:USF.COMPS:ANC:1,2011-08-10T18:54:00Z,28.1930,-82.7890,0.0,24.731,1111122 
COMPS,ioos:station:USF.COMPS:ANC:1,2011-08-10T19:54:00Z,28.1930,-82.7890,0.0,24.07,1111122 
COMPS,ioos:station:USF.COMPS:ANC:1,2011-08-10T21:54:00Z,28.1930,-82.7890,0.0,22.142,1111122 
COMPS,ioos:station:USF.COMPS:ANC:1,2011-08-10T22:54:00Z,28.1930,-82.7890,0.0,20.417,1111122 
COMPS,ioos:station:USF.COMPS:ANC:1,2011-08-10T23:54:00Z,28.1930,-82.7890,0.0,18.995,1111122 
COMPS,ioos:station:USF.COMPS:ANC:1,2011-08-11T02:54:00Z,28.1930,-82.7890,0.0,17.062,1111122 
COMPS,ioos:station:USF.COMPS:ANC:1,2011-08-11T03:54:00Z,28.1930,-82.7890,0.0,18.776,1111122 
COMPS,ioos:station:USF.COMPS:ANC:1,2011-08-11T04:54:00Z,28.1930,-82.7890,0.0,20.635,1111122 
COMPS,ioos:station:USF.COMPS:ANC:1,2011-08-11T05:54:00Z,28.1930,-82.7890,0.0,21.917,1111122 
COMPS,ioos:station:USF.COMPS:ANC:1,2011-08-11T06:54:00Z,28.1930,-82.7890,0.0,22.658,1111122 
COMPS,ioos:station:USF.COMPS:ANC:1,2011-08-11T07:54:00Z,28.1930,-82.7890,0.0,23.084,1111122 
COMPS,ioos:station:USF.COMPS:ANC:1,2011-08-11T08:54:00Z,28.1930,-82.7890,0.0,22.41,1111122 
COMPS,ioos:station:USF.COMPS:ANC:1,2011-08-11T09:54:00Z,28.1930,-82.7890,0.0,20.121,1111122 
COMPS,ioos:station:USF.COMPS:ANC:1,2011-08-11T10:54:00Z,28.1930,-82.7890,0.0,18.384,1111122 
COMPS,ioos:station:USF.COMPS:ANC:1,2011-08-11T11:54:00Z,28.1930,-82.7890,0.0,18.581,1111122 
COMPS,ioos:station:USF.COMPS:ANC:1,2011-08-11T12:54:00Z,28.1930,-82.7890,0.0,20.394,1111122 
COMPS,ioos:station:USF.COMPS:ANC:1,2011-08-11T13:54:00Z,28.1930,-82.7890,0.0,21.468,1111122 
COMPS,ioos:station:USF.COMPS:ANC:1,2011-08-11T14:54:00Z,28.1930,-82.7890,0.0,22.607,1111122 
COMPS,ioos:station:USF.COMPS:ANC:1,2011-08-11T15:54:00Z,28.1930,-82.7890,0.0,23.447,1111122 
COMPS,ioos:station:USF.COMPS:ANC:1,2011-08-11T16:54:00Z,28.1930,-82.7890,0.0,24.161,1111122 
COMPS,ioos:station:USF.COMPS:ANC:1,2011-08-11T17:54:00Z,28.1930,-82.7890,0.0,24.57,1111122 
COMPS,ioos:station:USF.COMPS:ANC:1,2011-08-11T18:54:00Z,28.1930,-82.7890,0.0,23.789,1111122 
COMPS,ioos:station:USF.COMPS:ANC:1,2011-08-11T20:54:00Z,28.1930,-82.7890,0.0,19.317,1111122 
COMPS,ioos:station:USF.COMPS:ANC:1,2011-08-11T21:54:00Z,28.1930,-82.7890,0.0,17.135,1111122 
COMPS,ioos:station:USF.COMPS:ANC:1,2011-08-11T22:54:00Z,28.1930,-82.7890,0.0,14.893,1111122 
COMPS,ioos:station:USF.COMPS:ANC:1,2011-08-11T23:54:00Z,28.1930,-82.7890,0.0,12.328,1111122 
COMPS,ioos:station:USF.COMPS:ANC:1,2011-08-12T00:54:00Z,28.1930,-82.7890,0.0,11.275,1111122 
COMPS,ioos:station:USF.COMPS:ANC:1,2011-08-12T01:54:00Z,28.1930,-82.7890,0.0,16.044,1111122 
COMPS,ioos:station:USF.COMPS:ANC:1,2011-08-12T02:54:00Z,28.1930,-82.7890,0.0,20.059,1111122 